Home   Weather   Citrus Heights   Past weeks

Flag for USA Past Weather in Citrus Heights, California, USA — Yesterday and Last 2 Weeks

Now
34 °F

Clear.


Feels Like: 31 °F
Forecast: 31 / 46 °F
Wind: 3 mph from Southeast

Location: Mather Field

Current Time: Dec 7, 2016 at 2:53:54 am

Latest Report: Dec 6, 2016 at 11:30 pm


Visibility: 10 mi

Pressure: 30.14 "Hg

Humidity: 93%

Dew Point: 32 °F

Location of Citrus HeightsLocation

Past Weather in Citrus Heights — Graph

°F

Citrus Heights Temperature Yesterday

Maximum temperature yesterday: 54 °F (at 2:57 pm)
Minimum temperature yesterday: 34 °F (at 11:30 pm)
Average temperature yesterday: 41 °F

High & Low Weather Summary for the Past Weeks

 TemperatureHumidityPressure
High59 °F (Nov 23, 12:58 pm)100% (Nov 22, 3:45 am)30.36 "Hg (Nov 22, 3:45 am)
Low34 °F (Nov 29, 4:55 am)27% (Dec 2, 12:45 pm)29.83 "Hg (Nov 26, 5:45 am)
Average47 °F82%30.12 "Hg
* Reported Nov 22 2:50 am — Dec 6 11:30 pm, Citrus Heights, Weather by CustomWeather, © 2016

Note: Actual official high and low records may vary slightly from our data, if they occured in-between our weather recording intervals... More about our weather records

Advertising

Citrus Heights Weather History for the Previous 24 Hours

Scroll right to see more
 ConditionsComfort  
Time TempWeatherWind HumidityBarometerVisibility
11:30 pm
Tue, Dec 6
34 °FClear.3 mph93%30.14 "Hg10 mi
10:55 pm36 °FClear.No wind100%30.13 "Hg10 mi
9:50 pm37 °FClear.No wind100%30.12 "Hg10 mi
7:45 pm37 °FPassing clouds.3 mph87%30.09 "Hg10 mi
6:45 pm37 °FPassing clouds.5 mph87%30.08 "Hg10 mi
5:45 pm41 °FPassing clouds.6 mph81%30.08 "Hg10 mi
3:50 pm52 °FScattered clouds.No wind54%30.07 "Hg10 mi
2:57 pm54 °FScattered clouds.No wind51%30.06 "Hg10 mi
1:45 pm50 °FScattered clouds.3 mph71%30.06 "Hg10 mi
12:45 pm48 °FPassing clouds.6 mph76%30.07 "Hg9 mi
11:59 am46 °FPassing clouds.3 mph93%30.08 "Hg8 mi
11:25 am45 °FPassing clouds.5 mph100%30.09 "Hg6 mi
10:50 am41 °FFog.5 mph100%30.10 "Hg2 mi
9:45 am43 °FFog.5 mph100%30.10 "Hg0 mi
8:45 am41 °FFog.No wind100%30.07 "Hg0 mi
7:45 am41 °FFog.5 mph100%30.06 "Hg0 mi
6:45 am37 °FFog.No wind100%30.05 "Hg0 mi
5:45 am37 °FFog.6 mph100%30.05 "Hg0 mi
4:45 am36 °FFog.No wind100%30.06 "Hg1 mi
3:45 am36 °FFog.No wind100%30.05 "Hg0 mi
2:50 am37 °FFog.No wind100%30.04 "Hg2 mi
Weather by CustomWeather, © 2016

See weather overviewHow to use our weather pages